Tracking 29091 objects as of 17-Jul-2024
HD Live streaming from Space Station
objects crossing your sky now

ATLAS 5 CENTAUR DEB

Track ATLAS 5 CENTAUR DEB now!


NORAD ID: 44694
Int'l Code: 2018-079BG
Perigee: 8,657.5 km
Apogee: 36,248.2 km
Inclination: 12.4 °
Period: 811.7 minutes
Semi major axis: 28823 km
RCS: Unknown
Launch date: October 17, 2018
Source: United States (US)
Launch site: AIR FORCE EASTERN TEST RANGE (AFETR)

Note: This is SATELLITE DEBRIS
Your satellite tracking list
Your tracking list is empty




NASA's NSSDC Master Catalog

Two Line Element Set (TLE):
1 44694U 18079BG  24194.41323148 -.00000114  00000-0  00000-0 0  9995
2 44694  12.4235  96.9163 4786098 186.1892 164.5622  1.77408610 34059
Source of the keplerian elements: AFSPC